When you browse on this site, cookies collect data to enhance your experience and personalize the content and advertising you see.
Visit our Privacy Policy to learn more. By continuing to use the site, you agree to this use of cookies and data.
  • In Hungary
  • List of Countries
  • For 7 days
  • Water Temperature
  • Satellite Maps
  • Weather Map
  • News
  • Weather Widgets
  • user-avatar
    Login

    Hourly Weather Kabaksola

    Today, 22 November, Thursday

    Time Temperature Precipitation Wind Pressure Humidity
    00:00 -8°C° 0 mm 4 mps 742 mmHg 82%
    01:00 -9°C° 0 mm 4 mps 742 mmHg 84%
    02:00 -9°C° 0 mm 4 mps 741 mmHg 87%
    03:00 -8°C° 0 mm 3 mps 741 mmHg 90%
    04:00 -9°C° 0 mm 4 mps 740 mmHg 90%
    05:00 -9°C° 0 mm 4 mps 740 mmHg 90%
    06:00 -9°C° 0 mm 4 mps 739 mmHg 90%
    07:00 -8°C° 0.1 mm 5 mps 739 mmHg 88%
    08:00 -8°C° 0.1 mm 5 mps 738 mmHg 86%
    09:00 -8°C° 0.1 mm 6 mps 737 mmHg 84%
    10:00 -8°C° 0.3 mm 6 mps 736 mmHg 84%
    11:00 -8°C° 0.3 mm 7 mps 735 mmHg 84%
    12:00 -8°C° 0.3 mm 7 mps 734 mmHg 84%
    13:00 -8°C° 0.5 mm 7 mps 733 mmHg 85%
    14:00 -6°C° 0.5 mm 6 mps 733 mmHg 87%
    15:00 -6°C° 0.5 mm 6 mps 732 mmHg 88%
    16:00 -6°C° 0.3 mm 6 mps 732 mmHg 88%
    17:00 -6°C° 0.3 mm 5 mps 732 mmHg 87%
    18:00 -5°C° 0.3 mm 5 mps 731 mmHg 87%
    19:00 -5°C° 0.1 mm 4 mps 731 mmHg 88%
    20:00 -6°C° 0.1 mm 3 mps 731 mmHg 88%
    21:00 -6°C° 0.1 mm 2 mps 731 mmHg 89%
    22:00 -6°C° 0 mm 2 mps 731 mmHg 90%
    23:00 -7°C° 0 mm 2 mps 731 mmHg 92%

    Tomorrow, 23 November, Friday

    Time Temperature Precipitation Wind Pressure Humidity
    00:00 -7°C° 0 mm 2 mps 731 mmHg 93%
    01:00 -7°C° 0.2 mm 2 mps 732 mmHg 92%
    02:00 -8°C° 0.2 mm 3 mps 733 mmHg 90%
    03:00 -8°C° 0.2 mm 4 mps 733 mmHg 89%
    04:00 -9°C° 0.1 mm 4 mps 734 mmHg 87%
    05:00 -10°C° 0.1 mm 5 mps 735 mmHg 84%
    06:00 -11°C° 0.1 mm 5 mps 736 mmHg 82%
    07:00 -11°C° 0 mm 5 mps 737 mmHg 82%
    08:00 -12°C° 0 mm 5 mps 738 mmHg 83%
    09:00 -11°C° 0 mm 4 mps 740 mmHg 83%
    10:00 -12°C° 0 mm 5 mps 740 mmHg 82%
    11:00 -11°C° 0 mm 5 mps 741 mmHg 81%
    12:00 -10°C° 0 mm 5 mps 742 mmHg 79%
    13:00 -10°C° 0.1 mm 5 mps 742 mmHg 79%
    14:00 -11°C° 0.1 mm 5 mps 743 mmHg 78%
    15:00 -11°C° 0.1 mm 5 mps 743 mmHg 78%
    16:00 -11°C° 0 mm 5 mps 744 mmHg 79%
    17:00 -11°C° 0 mm 4 mps 744 mmHg 80%
    18:00 -11°C° 0 mm 4 mps 745 mmHg 82%
    19:00 -11°C° 0 mm 4 mps 745 mmHg 84%
    20:00 -12°C° 0 mm 4 mps 745 mmHg 86%
    21:00 -12°C° 0 mm 3 mps 746 mmHg 88%
    22:00 -12°C° 0.1 mm 3 mps 746 mmHg 88%
    23:00 -10°C° 0.1 mm 3 mps 746 mmHg 89%

    Day after tomorrow, 24 November, Saturday

    Time Temperature Precipitation Wind Pressure Humidity
    00:00 -9°C° 0.1 mm 3 mps 746 mmHg 89%
    01:00 -10°C° 0 mm 4 mps 745 mmHg 90%
    02:00 -10°C° 0 mm 4 mps 745 mmHg 90%
    03:00 -10°C° 0 mm 4 mps 745 mmHg 91%
    04:00 -9°C° 0 mm 4 mps 744 mmHg 90%
    05:00 -9°C° 0 mm 4 mps 744 mmHg 90%
    06:00 -10°C° 0 mm 5 mps 744 mmHg 89%
    07:00 -10°C° 0 mm 5 mps 743 mmHg 88%
    08:00 -10°C° 0 mm 5 mps 743 mmHg 87%
    09:00 -10°C° 0 mm 6 mps 742 mmHg 86%
    10:00 -9°C° 0.1 mm 6 mps 742 mmHg 85%
    11:00 -9°C° 0.1 mm 6 mps 741 mmHg 83%
    12:00 -8°C° 0.1 mm 7 mps 741 mmHg 82%
    13:00 -8°C° 0.1 mm 7 mps 741 mmHg 82%
    14:00 -6°C° 0.1 mm 6 mps 740 mmHg 81%
    15:00 -6°C° 0.1 mm 6 mps 740 mmHg 81%
    16:00 -5°C° 0 mm 6 mps 740 mmHg 82%
    17:00 -5°C° 0 mm 6 mps 740 mmHg 83%
    18:00 -5°C° 0 mm 6 mps 740 mmHg 84%
    19:00 -5°C° 0 mm 6 mps 740 mmHg 85%
    20:00 -5°C° 0 mm 5 mps 740 mmHg 85%
    21:00 -5°C° 0 mm 5 mps 740 mmHg 86%
    22:00 -6°C° 0 mm 5 mps 740 mmHg 87%
    23:00 -6°C° 0 mm 5 mps 740 mmHg 87%

    25 November, Sunday

    Time Temperature Precipitation Wind Pressure Humidity
    00:00 -6°C° 0 mm 5 mps 740 mmHg 88%
    01:00 -6°C° 0.2 mm 5 mps 740 mmHg 88%
    02:00 -6°C° 0.2 mm 5 mps 740 mmHg 89%
    03:00 -6°C° 0.2 mm 5 mps 739 mmHg 90%
    04:00 -6°C° 0.2 mm 5 mps 739 mmHg 89%
    05:00 -6°C° 0.2 mm 5 mps 739 mmHg 89%
    06:00 -6°C° 0.2 mm 5 mps 739 mmHg 89%
    07:00 -6°C° 0.1 mm 5 mps 739 mmHg 88%
    08:00 -6°C° 0.1 mm 5 mps 739 mmHg 88%
    09:00 -6°C° 0.1 mm 5 mps 739 mmHg 87%
    10:00 -5°C° 0.1 mm 5 mps 740 mmHg 85%
    11:00 -5°C° 0.1 mm 5 mps 740 mmHg 83%
    12:00 -5°C° 0.1 mm 5 mps 740 mmHg 82%
    13:00 -4°C° 0 mm 4 mps 741 mmHg 83%
    14:00 -4°C° 0 mm 4 mps 741 mmHg 84%
    15:00 -5°C° 0 mm 3 mps 742 mmHg 85%
    16:00 -5°C° 0 mm 3 mps 742 mmHg 87%
    17:00 -4°C° 0 mm 2 mps 742 mmHg 89%
    18:00 -5°C° 0 mm 2 mps 743 mmHg 90%
    19:00 -5°C° 0 mm 2 mps 743 mmHg 91%
    20:00 -3°C° 0 mm 1 mps 743 mmHg 91%
    21:00 -3°C° 0 mm 1 mps 743 mmHg 92%
    22:00 -3°C° 0 mm 1 mps 743 mmHg 92%
    23:00 -3°C° 0 mm 1 mps 743 mmHg 92%

    26 November, Monday

    Time Temperature Precipitation Wind Pressure Humidity
    00:00 -3°C° 0 mm 1 mps 743 mmHg 92%
    01:00 -3°C° 0 mm 1 mps 743 mmHg 92%
    02:00 -4°C° 0 mm 1 mps 743 mmHg 93%
    03:00 -4°C° 0 mm 1 mps 743 mmHg 93%
    04:00 -6°C° 0 mm 2 mps 743 mmHg 94%
    05:00 -6°C° 0 mm 2 mps 743 mmHg 94%
    06:00 -6°C° 0 mm 2 mps 743 mmHg 94%
    07:00 -6°C° 0 mm 2 mps 743 mmHg 94%
    08:00 -6°C° 0 mm 2 mps 743 mmHg 93%
    09:00 -6°C° 0 mm 2 mps 743 mmHg 93%
    10:00 -5°C° 0 mm 2 mps 743 mmHg 91%
    11:00 -5°C° 0 mm 2 mps 743 mmHg 90%
    12:00 -5°C° 0 mm 2 mps 743 mmHg 89%
    13:00 -5°C° 0 mm 2 mps 742 mmHg 90%
    14:00 -3°C° 0 mm 1 mps 742 mmHg 91%
    15:00 -4°C° 0 mm 1 mps 742 mmHg 92%
    16:00 -4°C° 0 mm 1 mps 742 mmHg 92%
    17:00 -6°C° 0 mm 1 mps 742 mmHg 93%
    18:00 -6°C° 0 mm 1 mps 742 mmHg 93%
    19:00 -6°C° 0.1 mm 1 mps 742 mmHg 93%
    20:00 -6°C° 0.1 mm 1 mps 741 mmHg 93%
    21:00 -6°C° 0.1 mm 1 mps 741 mmHg 93%
    22:00 -6°C° 0.2 mm 1 mps 741 mmHg 94%
    23:00 -6°C° 0.2 mm 1 mps 741 mmHg 94%

    27 November, Tuesday

    Time Temperature Precipitation Wind Pressure Humidity
    00:00 -6°C° 0.2 mm 1 mps 741 mmHg 94%
    01:00 -6°C° 0.1 mm 1 mps 741 mmHg 95%
    02:00 -6°C° 0.1 mm 1 mps 741 mmHg 96%
    03:00 -6°C° 0.1 mm 1 mps 741 mmHg 96%
    04:00 -6°C° 0.1 mm 1 mps 741 mmHg 96%
    05:00 -6°C° 0.1 mm 1 mps 741 mmHg 97%
    06:00 -6°C° 0.1 mm 1 mps 741 mmHg 97%
    07:00 -7°C° 0.1 mm 1 mps 742 mmHg 97%
    08:00 -7°C° 0.1 mm 1 mps 742 mmHg 96%
    09:00 -7°C° 0.1 mm 1 mps 743 mmHg 96%
    10:00 -7°C° 0 mm 1 mps 743 mmHg 95%
    11:00 -6°C° 0 mm 1 mps 744 mmHg 93%
    12:00 -7°C° 0 mm 2 mps 744 mmHg 92%
    13:00 -7°C° 0 mm 1 mps 745 mmHg 93%
    14:00 -7°C° 0 mm 1 mps 745 mmHg 94%
    15:00 -8°C° 0 mm 1 mps 745 mmHg 94%
    16:00 -8°C° 0 mm 1 mps 746 mmHg 95%
    17:00 -9°C° 0 mm 1 mps 746 mmHg 95%
    18:00 -9°C° 0 mm 1 mps 747 mmHg 96%
    19:00 -9°C° 0 mm 1 mps 747 mmHg 96%
    20:00 -10°C° 0 mm 1 mps 748 mmHg 96%
    21:00 -10°C° 0 mm 1 mps 748 mmHg 96%
    22:00 -10°C° 0 mm 1 mps 749 mmHg 96%
    23:00 -10°C° 0 mm 1 mps 749 mmHg 95%
    Show more